When you browse on this site, cookies collect data to enhance your experience and personalize the content and advertising you see.
Visit our Privacy Policy to learn more. By continuing to use the site, you agree to this use of cookies and data.
  • In Sweden
  • List of Countries
  • For 7 days
  • Water Temperature
  • Weather Map
  • Weather Widgets
  • user-avatar
    Login

    Hourly Weather Toluca

    Today, 26 February, Wednesday

    Time Temperature Precipitation Wind Pressure Humidity
    00:00 +10°C° 0 mm 1 mps 549 mmHg 44%
    01:00 +8°C° 0 mm 0 mps 548 mmHg 44%
    02:00 +8°C° 0 mm 0 mps 548 mmHg 43%
    03:00 +8°C° 0 mm 0 mps 548 mmHg 43%
    04:00 +7°C° 0 mm 0 mps 548 mmHg 43%
    05:00 +7°C° 0 mm 0 mps 548 mmHg 43%
    06:00 +10°C° 0 mm 1 mps 550 mmHg 41%
    07:00 +12°C° 0 mm 1 mps 552 mmHg 39%
    08:00 +14°C° 0 mm 1 mps 553 mmHg 37%
    09:00 +16°C° 0 mm 1 mps 554 mmHg 33%
    10:00 +18°C° 0 mm 2 mps 555 mmHg 30%
    11:00 +20°C° 0 mm 2 mps 556 mmHg 26%
    12:00 +20°C° 0 mm 3 mps 555 mmHg 26%
    13:00 +20°C° 0 mm 4 mps 554 mmHg 26%
    14:00 +21°C° 0 mm 5 mps 554 mmHg 26%
    15:00 +19°C° 0 mm 4 mps 553 mmHg 30%
    16:00 +18°C° 0 mm 4 mps 553 mmHg 34%
    17:00 +17°C° 0 mm 3 mps 552 mmHg 38%
    18:00 +15°C° 0 mm 2 mps 552 mmHg 45%
    19:00 +13°C° 0 mm 2 mps 552 mmHg 51%
    20:00 +11°C° 0 mm 1 mps 552 mmHg 58%
    21:00 +11°C° 0 mm 1 mps 552 mmHg 64%
    22:00 +10°C° 0 mm 1 mps 551 mmHg 70%
    23:00 +9°C° 0 mm 1 mps 551 mmHg 75%

    Tomorrow, 27 February, Thursday

    Time Temperature Precipitation Wind Pressure Humidity
    00:00 +9°C° 0 mm 1 mps 551 mmHg 80%
    01:00 +9°C° 0 mm 1 mps 551 mmHg 84%
    02:00 +8°C° 0 mm 1 mps 551 mmHg 88%
    03:00 +8°C° 0 mm 1 mps 551 mmHg 89%
    04:00 +8°C° 0 mm 1 mps 550 mmHg 91%
    05:00 +7°C° 0 mm 1 mps 550 mmHg 92%
    06:00 +8°C° 0 mm 0 mps 552 mmHg 83%
    07:00 +10°C° 0 mm 0 mps 553 mmHg 74%
    08:00 +11°C° 0 mm 0 mps 554 mmHg 66%
    09:00 +15°C° 0 mm 1 mps 555 mmHg 56%
    10:00 +18°C° 0 mm 1 mps 556 mmHg 46%
    11:00 +20°C° 0 mm 1 mps 557 mmHg 37%
    12:00 +20°C° 0 mm 2 mps 556 mmHg 37%
    13:00 +20°C° 0 mm 2 mps 555 mmHg 37%
    14:00 +20°C° 0 mm 2 mps 555 mmHg 37%
    15:00 +19°C° 0 mm 2 mps 554 mmHg 41%
    16:00 +18°C° 0 mm 2 mps 553 mmHg 46%
    17:00 +16°C° 0 mm 3 mps 553 mmHg 51%
    18:00 +15°C° 0 mm 2 mps 552 mmHg 57%
    19:00 +13°C° 0 mm 1 mps 552 mmHg 63%
    20:00 +11°C° 0 mm 0 mps 552 mmHg 69%
    21:00 +10°C° 0 mm 0 mps 552 mmHg 71%
    22:00 +10°C° 0 mm 0 mps 552 mmHg 72%
    23:00 +10°C° 0 mm 0 mps 552 mmHg 73%

    Day after tomorrow, 28 February, Friday

    Time Temperature Precipitation Wind Pressure Humidity
    00:00 +9°C° 0 mm 0 mps 552 mmHg 74%
    01:00 +9°C° 0 mm 0 mps 552 mmHg 75%
    02:00 +9°C° 0 mm 0 mps 551 mmHg 76%
    03:00 +8°C° 0 mm 0 mps 551 mmHg 78%
    04:00 +8°C° 0 mm 0 mps 551 mmHg 79%
    05:00 +7°C° 0 mm 0 mps 551 mmHg 80%
    06:00 +9°C° 0 mm 0 mps 552 mmHg 71%
    07:00 +12°C° 0 mm 0 mps 554 mmHg 62%
    08:00 +14°C° 0 mm 0 mps 556 mmHg 53%
    09:00 +16°C° 0 mm 0 mps 557 mmHg 46%
    10:00 +21°C° 0 mm 1 mps 558 mmHg 38%
    11:00 +23°C° 0 mm 1 mps 559 mmHg 31%
    12:00 +23°C° 0 mm 1 mps 558 mmHg 30%
    13:00 +23°C° 0 mm 1 mps 557 mmHg 30%
    14:00 +23°C° 0 mm 2 mps 556 mmHg 29%
    15:00 +21°C° 0 mm 2 mps 556 mmHg 34%
    16:00 +20°C° 0 mm 2 mps 555 mmHg 38%
    17:00 +19°C° 0 mm 2 mps 555 mmHg 42%
    18:00 +17°C° 0 mm 2 mps 555 mmHg 48%
    19:00 +15°C° 0 mm 1 mps 554 mmHg 54%
    20:00 +13°C° 0 mm 1 mps 554 mmHg 60%
    21:00 +13°C° 0 mm 1 mps 554 mmHg 63%
    22:00 +12°C° 0 mm 1 mps 554 mmHg 65%
    23:00 +11°C° 0 mm 1 mps 554 mmHg 67%

    29 February, Saturday

    Time Temperature Precipitation Wind Pressure Humidity
    00:00 +10°C° 0 mm 1 mps 554 mmHg 69%
    01:00 +9°C° 0 mm 0 mps 553 mmHg 71%
    02:00 +8°C° 0 mm 0 mps 553 mmHg 73%
    03:00 +8°C° 0 mm 0 mps 552 mmHg 76%
    04:00 +8°C° 0 mm 0 mps 552 mmHg 78%
    05:00 +7°C° 0 mm 0 mps 552 mmHg 80%
    06:00 +9°C° 0 mm 0 mps 553 mmHg 71%
    07:00 +11°C° 0 mm 0 mps 555 mmHg 63%
    08:00 +14°C° 0 mm 0 mps 556 mmHg 54%
    09:00 +18°C° 0 mm 1 mps 557 mmHg 45%
    10:00 +20°C° 0 mm 1 mps 558 mmHg 36%
    11:00 +23°C° 0 mm 2 mps 558 mmHg 28%
    12:00 +23°C° 0 mm 2 mps 558 mmHg 26%
    13:00 +24°C° 0 mm 2 mps 557 mmHg 25%
    14:00 +24°C° 0 mm 3 mps 556 mmHg 24%
    15:00 +23°C° 0 mm 2 mps 555 mmHg 29%
    16:00 +20°C° 0 mm 2 mps 555 mmHg 34%
    17:00 +19°C° 0 mm 2 mps 554 mmHg 38%
    18:00 +18°C° 0 mm 1 mps 554 mmHg 47%
    19:00 +15°C° 0 mm 1 mps 553 mmHg 55%
    20:00 +12°C° 0 mm 0 mps 553 mmHg 63%
    21:00 +11°C° 0 mm 0 mps 553 mmHg 64%
    22:00 +11°C° 0 mm 0 mps 552 mmHg 65%
    23:00 +11°C° 0 mm 0 mps 552 mmHg 65%

    1 March, Sunday

    Time Temperature Precipitation Wind Pressure Humidity
    00:00 +10°C° 0 mm 0 mps 552 mmHg 66%
    01:00 +10°C° 0 mm 0 mps 551 mmHg 66%
    02:00 +9°C° 0 mm 0 mps 551 mmHg 67%
    03:00 +9°C° 0 mm 0 mps 551 mmHg 67%
    04:00 +9°C° 0 mm 0 mps 551 mmHg 67%
    05:00 +8°C° 0 mm 0 mps 550 mmHg 68%
    06:00 +11°C° 0 mm 0 mps 552 mmHg 58%
    07:00 +13°C° 0 mm 0 mps 554 mmHg 49%
    08:00 +16°C° 0 mm 0 mps 555 mmHg 40%
    09:00 +20°C° 0 mm 1 mps 556 mmHg 35%
    10:00 +22°C° 0 mm 1 mps 557 mmHg 29%
    11:00 +24°C° 0 mm 1 mps 558 mmHg 24%
    12:00 +24°C° 0 mm 2 mps 557 mmHg 23%
    13:00 +25°C° 0 mm 2 mps 556 mmHg 23%
    14:00 +25°C° 0 mm 2 mps 556 mmHg 22%
    15:00 +24°C° 0 mm 2 mps 555 mmHg 27%
    16:00 +21°C° 0 mm 2 mps 554 mmHg 32%
    17:00 +20°C° 0 mm 2 mps 553 mmHg 37%
    18:00 +18°C° 0 mm 2 mps 552 mmHg 45%
    19:00 +16°C° 0 mm 1 mps 552 mmHg 53%
    20:00 +13°C° 0 mm 0 mps 551 mmHg 60%
    21:00 +13°C° 0 mm 0 mps 551 mmHg 61%
    22:00 +12°C° 0 mm 0 mps 551 mmHg 63%
    23:00 +12°C° 0 mm 0 mps 551 mmHg 64%

    2 March, Monday

    Time Temperature Precipitation Wind Pressure Humidity
    00:00 +11°C° 0 mm 0 mps 551 mmHg 65%
    01:00 +12°C° 0 mm 1 mps 550 mmHg 67%
    02:00 +12°C° 0 mm 1 mps 550 mmHg 69%
    03:00 +11°C° 0 mm 1 mps 550 mmHg 70%
    04:00 +10°C° 0 mm 0 mps 550 mmHg 71%
    05:00 +9°C° 0 mm 0 mps 550 mmHg 72%
    06:00 +12°C° 0 mm 0 mps 551 mmHg 63%
    07:00 +14°C° 0 mm 0 mps 553 mmHg 55%
    08:00 +17°C° 0 mm 0 mps 555 mmHg 46%
    09:00 +19°C° 0 mm 0 mps 555 mmHg 40%
    10:00 +23°C° 0 mm 1 mps 556 mmHg 33%
    11:00 +25°C° 0 mm 1 mps 557 mmHg 27%
    12:00 +25°C° 0 mm 2 mps 556 mmHg 27%
    13:00 +25°C° 0 mm 3 mps 555 mmHg 28%
    14:00 +23°C° 0 mm 4 mps 554 mmHg 28%
    15:00 +22°C° 0 mm 4 mps 553 mmHg 31%
    16:00 +21°C° 0 mm 3 mps 553 mmHg 34%
    17:00 +20°C° 0 mm 3 mps 552 mmHg 37%
    18:00 +18°C° 0 mm 3 mps 551 mmHg 45%
    19:00 +16°C° 0 mm 2 mps 551 mmHg 52%
    20:00 +14°C° 0 mm 1 mps 550 mmHg 60%
    21:00 +14°C° 0 mm 1 mps 550 mmHg 63%
    22:00 +13°C° 0 mm 1 mps 550 mmHg 65%
    23:00 +13°C° 0 mm 1 mps 550 mmHg 68%
    Show more